Location: Newark
(25.6108°S, 54.5803°W)
Time: 10:01:48
(UTC+00:00)

deb Explorer IX - Pass Details

Date: 01 November 2020
Orbit: 538 x 1104 km, 38.8° (Epoch: 23 November)

Event Time Altitude Azimuth Distance (km) Brightness Sun altitude
Rises 23:18:41 0° 233° (SW) 3,090 ? -18.3°
Reaches altitude 10° 23:21:35 10° 220° (SW) 2,073 ? -18.9°
Maximum altitude 23:25:32 26° 163° (SSE) 1,218 ? -19.7°
Enters shadow 23:27:08 21° 130° (SE) 1,357 ? -20.0°
Drops below altitude 10° 23:29:07 10° 106° (ESE) 1,869 - -20.4°
Sets 23:31:35 0° 92° (E) 2,721 - -20.9°
